This is the latest recevied weather packets stored in our database for station/object DK4ARL. If no packets are shown the sender has not sent any weather packets the latest 10 day(s).
| Time | Temp. | Humidity | Pressure | Rain* | Wind** | Luminosity | Snow |
|---|---|---|---|---|---|---|---|
| 1777749904 | 17.22° C | - | 979.7 hPa | 0 mm | - | - | - |
| 1777749010 | 17.78° C | - | 979.6 hPa | 0 mm | - | - | - |
| 1777748114 | 18.89° C | - | 979.6 hPa | 0 mm | - | - | - |
| 1777747217 | 19.44° C | - | 979.5 hPa | 0 mm | - | - | - |
| 1777746329 | 21.11° C | - | 979.5 hPa | 0 mm | - | - | - |
| 1777745428 | 22.22° C | - | 979.6 hPa | 0 mm | - | - | - |
| 1777744527 | 23.33° C | - | 979.6 hPa | 0 mm | - | - | - |
| 1777743624 | 24.44° C | - | 979.7 hPa | 0 mm | - | - | - |
| 1777741816 | 25.56° C | - | 980 hPa | 0 mm | - | - | - |
| 1777740910 | 25.56° C | - | 980.1 hPa | 0 mm | - | - | - |
| 1777740002 | 26.11° C | - | 980.3 hPa | 0 mm | - | - | - |
| 1777739094 | 26.11° C | - | 980.5 hPa | 0 mm | - | - | - |
| 1777738183 | 26.67° C | - | 980.7 hPa | 0 mm | - | - | - |
| 1777737269 | 26.67° C | - | 980.9 hPa | 0 mm | - | - | - |
| 1777736353 | 27.22° C | - | 981.1 hPa | 0 mm | - | - | - |
| 1777735435 | 27.22° C | - | 981.3 hPa | 0 mm | - | - | - |
| 1777734513 | 27.78° C | - | 981.5 hPa | 0 mm | - | - | - |
| 1777733589 | 27.22° C | - | 981.7 hPa | 0 mm | - | - | - |
| 1777732664 | 27.78° C | - | 981.9 hPa | 0 mm | - | - | - |
| 1777731739 | 28.33° C | - | 982.1 hPa | 0 mm | - | - | - |
| 1777730813 | 30° C | - | 982.3 hPa | 0 mm | - | - | - |
| 1777729887 | 28.89° C | - | 982.4 hPa | 0 mm | - | - | - |
| 1777728961 | 30.56° C | - | 982.6 hPa | 0 mm | - | - | - |
| 1777728036 | 29.44° C | - | 982.8 hPa | 0 mm | - | - | - |
| 1777727111 | 26.67° C | - | 983 hPa | 0 mm | - | - | - |
* Rain latest hour (hover to see other rain measurements)
** Current wind speed in m/s (hover to see current wind gust speed)